RBSP B

Last updated on Nov. 15, 2019, 4:21 a.m. UTC

1 38753U 12046B   19317.81048481  .00001164  00000-0  22082-3 0  9993
2 38753   9.8575 144.8017 6937966 208.7454  82.6735  2.72719440 70029
UTC
Height (km)
Latitude
Longitude
Inclination
Orbital Period
UTC large
Height (km)
Speed (km/s)
/
Latitude / Longitude
Inclination (degrees)
Orbital Period (minutes)
Azimuth
Elevation
Range (km)
Doppler Factor
iOS Compass Heading
iOS Angle

Next 30 passes for location: Hong Kong

Rise time Rise Azimuth (degrees) Set time Set Azimuth (degrees) Duration Max altitude (degrees)

No matching passes for this satellites